Notices

What's New in latest Release from April 7th, 2021:

- Updated Glossary, including Speed of Maximum Gust, and Total Hourly Precipitation

- Updated national and regional climate services offices contacts and prices information

- Addition of station inventory lists for 1981-2010, 1971-2000, and 1961-1990 Normals.

If you haven't already, please take our survey and provide feedback about our website: https://eccc.sondage-survey.ca/f/LanguageSelection.aspx?s=442ca660-fcf1-47c0-95a9-59707d6fd709

Hourly Data Report for April 02, 2021

CLYDE RIVER A
NUNAVUT
Current Station Operator: NAVCAN

70°29'09.000" N
68°31'01.000" W
26.50 m
2400804
71090
YCY

Download Data

Hourly Data (April 2021)
Hourly Data Report for April 2, 2021
TIME
LST
Temp Definition
°C
Dew Point Definition
°C
Rel Hum Definition
%
Precip. Amount Definition
mm

Wind Dir Definition
10's deg

Wind Spd Definition
km/h
Visibility Definition
km
Stn Press Definition
kPa
Hmdx Definition


Wind Chill Definition


Weather Definition


00:00 -23.0 -29.5 56 0.0 26 32 12.9 101.22   -37 LegendNANA
01:00 -25.7 -28.8 76 0.0 19 28 12.9 101.41   -40 LegendNANA
02:00 -24.5 -27.6 76 0.0 25 39 1.0 101.58   -40 Snow,Blowing Snow
03:00 -23.6 -28.2 67 0.0 20 15 16.1 101.84   -34 LegendNANA
04:00 -24.2 -27.8 73 0.0 21 30 11.3 101.94   -38 LegendNANA
05:00 -25.4 -28.2 78 0.0 22 39 0.6 102.11   -41 Moderate Snow,Blowing Snow
06:00 -25.1 -28.2 76 0.0 24 34 1.6 102.23   -40 Haze
07:00 -25.3 -27.8 80 0.1 24 48 0.4 102.33   -42 Heavy Snow,Blowing Snow
08:00 -25.3 -27.8 80 0.2 22 46 0.2 102.34   -42 Heavy Snow,Blowing Snow
09:00 -25.6 -28.1 80 0.5 22 43 0.2 102.49   -42 Heavy Snow,Blowing Snow
10:00 -23.4 -25.8 81 0.3 24 37 0.2 102.58   -38 Heavy Snow,Blowing Snow
11:00 -23.9 -26.3 81 0.1 22 43 0.2 102.69   -40 Heavy Snow,Blowing Snow
12:00 -23.6 -25.9 82 0.2 23 37 0.4 102.83   -38 Heavy Snow
13:00 -21.8 -26.1 69 0.0 24 39 1.6 102.86   -36 Snow,Blowing Snow
14:00 -20.9 -25.9 65 0.0 21 26 6.4 102.98   -33 Haze
15:00 -21.4 -26.2 66 0.0 24 28 16.1 103.05   -34 LegendNANA
16:00 -21.8 -26.0 70 0.0 20 17 16.1 103.12   -32 LegendNANA
17:00 -21.7 -26.8 64 0.0 22 18 16.1 103.20   -32 LegendNANA
18:00 -22.3 -27.5 63 0.0 4 11 16.1 103.30   -30 LegendNANA
19:00 -25.4 -29.4 70 0.0   0 16.1 103.40     LegendNANA
20:00 -28.0 -32.0 70 0.0 1 4 16.1 103.48   -32 LegendNANA
21:00 -29.0 -32.4 73 0.0 26 9 16.1 103.54   -37 LegendNANA
22:00 -27.3 -30.7 74 0.0 26 11 16.1 103.64   -36 LegendNANA
23:00 -28.3 -32.7 67 0.0 27 9 16.1 103.67   -37 LegendNANA

Notes on Data Quality.

Legend

  • E = Estimated
  • M = Missing
  • NA = Not Available*
  • [empty] = Indicates an unobserved value
Date modified: